N8DH Weather Reports


Display with metric or nautical units.
time (UTC)temp
F
wind
direction
speed
MPH
gust
MPH
rain 1hr
in
rain 24hr
in
rain mn
in
humidity
%
barometer
mb
20260505023010 65 181 4.0 10.0 0.00 0.00 0.00 64 997.4
20260505021526 65 153 5.0 10.0 0.00 0.00 0.00 62 997.3
20260505020008 65 214 4.0 9.0 0.00 0.00 0.00 62 997.2
20260505014527 66 157 4.0 13.0 0.00 0.00 0.00 60 997.1
20260505013026 67 174 6.0 15.0 0.00 0.00 0.00 58 997.2
20260505011526 67 189 7.0 15.0 0.00 0.00 0.00 57 997.2
20260505010018 68 173 8.0 16.0 0.00 0.00 0.00 55 997.0
20260505004534 69 183 9.0 21.0 0.00 0.00 0.00 54 996.8
20260505003018 69 190 7.0 12.0 0.00 0.00 0.00 54 996.6
20260505001518 69 193 5.0 12.0 0.00 0.00 0.00 53 996.5
20260505000015 70 217 7.0 15.0 0.00 0.00 0.00 50 996.4
20260504234509 71 209 7.0 18.0 0.00 0.00 0.00 50 996.2
20260504233012 71 189 12.0 22.0 0.00 0.00 0.00 50 995.9
20260504231510 71 192 11.0 21.0 0.00 0.00 0.00 52 995.9
20260504230010 72 211 10.0 17.0 0.00 0.00 0.00 53 996.0
20260504224510 72 192 14.0 24.0 0.00 0.00 0.00 52 996.1
20260504223034 72 200 11.0 19.0 0.00 0.00 0.00 54 996.2
20260504221527 72 191 11.0 20.0 0.00 0.00 0.00 55 996.4
20260504220023 71 182 8.0 13.0 0.00 0.00 0.00 61 996.6
20260504214518 70 146 8.0 15.0 0.00 0.00 0.00 62 996.6
20260504213022 69 191 8.0 18.0 0.00 0.00 0.00 60 996.7
20260504211515 74 182 13.0 21.0 0.00 0.00 0.00 51 996.8
20260504210020 73 200 11.0 21.0 0.00 0.00 0.00 51 996.7
20260504204518 72 185 8.0 20.0 0.00 0.00 0.00 52 997.0
20260504203016 73 136 12.0 21.0 0.00 0.00 0.00 52 997.1
20260504201515 73 182 9.0 18.0 0.00 0.00 0.00 51 997.4
20260504200014 73 190 9.0 19.0 0.00 0.00 0.00 50 997.6
20260504194509 73 205 12.0 22.0 0.00 0.00 0.00 47 997.8
20260504193014 72 167 8.0 20.0 0.00 0.00 0.00 51 997.9
20260504191513 72 196 12.0 19.0 0.00 0.00 0.00 50 998.3
20260504190010 71 178 11.0 19.0 0.00 0.00 0.00 50 998.5
20260504184504 71 186 9.0 17.0 0.00 0.00 0.00 49 998.5
20260504183024 71 160 7.0 24.0 0.00 0.00 0.00 53 998.7
20260504181524 71 202 11.0 20.0 0.00 0.00 0.00 49 999.0
20260504180021 71 173 9.0 17.0 0.00 0.00 0.00 50 999.1
20260504174519 71 232 10.0 16.0 0.00 0.00 0.00 47 999.2
20260504173020 70 175 11.0 17.0 0.00 0.00 0.00 49 999.3
20260504171559 70 202 9.0 17.0 0.00 0.00 0.00 47 999.4
20260504081533 51 185 5.0 10.0 0.00 0.00 0.00 63 1002.3
20260504050015 50 151 4.0 10.0 0.00 0.00 0.00 66 1004.7
20260504044526 50 163 4.0 9.0 0.00 0.00 0.00 66 1004.8
20260504043034 49 172 3.0 6.0 0.00 0.00 0.00 67 1004.9
20260504041522 49 157 3.0 6.0 0.00 0.00 0.00 68 1005.0
20260504040019 49 168 3.0 6.0 0.00 0.00 0.00 69 1005.2
20260504034520 49 161 3.0 5.0 0.00 0.00 0.00 69 1005.4
20260504033015 50 162 2.0 6.0 0.00 0.00 0.00 68 1005.5
20260504031510 50 153 2.0 6.0 0.00 0.00 0.00 68 1005.6
20260504030021 51 161 3.0 7.0 0.00 0.00 0.00 67 1005.8
20260504024533 51 181 4.0 9.0 0.00 0.00 0.00 67 1005.9